Location: Angwan Shehu
(11.2514°N, 7.4613°E)
Time: 15:00:48
(UTC+00:00)

Tiros 1 despin weight - All Passes

Search period start: 23 April 2021 00:00
Search period end: 03 May 2021 00:00
Orbit: 593 x 641 km, 48.2° (Epoch: 22 April)

Date Brightness Start Highest point End Pass type
(mag) Time Alt. Az. Time Alt. Az. Time Alt. Az.
23 Apr - 01:05:14 10° SW 01:09:55 84° NW 01:14:35 10° NE night (unlit)
23 Apr - 11:27:21 10° NW 11:31:46 82° NE 11:36:09 10° SE daylight
23 Apr - 23:41:22 10° S 23:44:52 21° SE 23:48:20 10° E night (unlit)
24 Apr - 01:22:02 10° WSW 01:26:14 32° NW 01:30:24 10° NNE night (unlit)
24 Apr - 10:03:31 10° N 10:06:33 18° NE 10:09:32 10° E daylight
24 Apr - 11:43:59 10° WNW 11:48:00 35° SW 11:51:59 10° SSE daylight
24 Apr - 23:56:31 10° SSW 00:01:05 54° SE 00:05:38 10° NE night (unlit)
25 Apr - 01:40:16 10° WNW 01:42:40 14° NW 01:45:05 10° NNW night (unlit)
25 Apr - 10:18:42 10° NNW 10:22:56 44° NE 10:27:08 10° ESE daylight
25 Apr - 12:02:07 10° W 12:04:12 13° SW 12:06:15 10° SSW daylight
25 Apr - 22:34:23 10° SSE 22:36:02 12° SE 22:37:41 10° ESE night (unlit)
26 Apr - 00:12:44 10° SW 00:17:20 57° NW 00:21:55 10° NNE night (unlit)
26 Apr - 08:56:44 10° NNE 08:57:33 10° NE 08:58:22 10° NE daylight
26 Apr - 10:34:49 10° NW 10:39:12 65° SW 10:43:33 10° SSE daylight
26 Apr - 22:48:09 10° S 22:52:14 30° SE 22:56:19 10° ENE night (unlit)
27 Apr - 00:30:00 10° W 00:33:41 23° NW 00:37:23 10° N night (unlit)
27 Apr - 09:10:21 10° N 09:14:03 25° NE 09:17:43 10° ESE daylight
27 Apr - 10:51:52 10° WNW 10:55:24 23° SW 10:58:55 10° S daylight
27 Apr - 23:03:47 10° SW 23:08:27 81° SE 23:13:08 10° NE night (unlit)
28 Apr - 09:25:58 10° NW 09:30:23 68° NE 09:34:45 10° SE daylight
28 Apr - 21:40:20 10° S 21:43:25 17° SE 21:46:29 10° E night (unlit)
28 Apr - 23:20:24 10° WSW 23:24:45 38° NW 23:29:06 10° NNE night (unlit)
29 Apr - 08:02:28 10° N 08:05:05 15° NE 08:07:42 10° E daylight
29 Apr - 09:42:25 10° WNW 09:46:37 42° SW 09:50:47 10° SSE daylight
29 Apr - 21:55:10 10° SSW 21:59:37 44° SE 22:04:04 10° ENE night (unlit)
29 Apr - 23:38:14 10° W 23:41:10 16° NW 23:44:06 10° N night (unlit)
30 Apr - 08:17:23 10° NNW 08:21:31 37° NE 08:25:36 10° ESE daylight
30 Apr - 10:00:06 10° W 10:02:48 16° SW 10:05:29 10° SSW daylight
30 Apr - 22:11:13 10° SW 22:15:51 68° NW 22:20:30 10° NE night (unlit)
01 May - 08:33:21 10° NW 08:37:48 80° SW 08:42:13 10° SE daylight
01 May - 20:46:57 10° S 20:50:47 25° SE 20:54:37 10° ENE night (unlit)
01 May - 22:28:14 10° WSW 22:32:11 27° NW 22:36:08 10° N night (unlit)
02 May - 07:09:07 10° N 07:12:36 22° NE 07:16:03 10° E daylight
02 May - 08:50:11 10° WNW 08:54:00 28° SW 08:57:49 10° S daylight
02 May - 21:02:22 10° SSW 21:06:59 67° SE 21:11:37 10° NE night (unlit)
02 May - 22:47:07 10° WNW 22:48:40 11° NW 22:50:14 10° NNW night (unlit)
